Location: Newark
(55.7816°N, 8.2389°E)
Time: 11:33:20
(UTC+00:00)

ISS - Visible Passes

Search period start: 21 January 2021 00:00
Search period end: 31 January 2021 00:00
Orbit: 418 x 419 km, 51.6° (Epoch: 21 January)

Date Brightness Start Highest point End Pass type
(mag) Time Alt. Az. Time Alt. Az. Time Alt. Az.
21 Jan -1.3 18:31:22 10° SSW 18:32:21 16° SSW 18:32:21 16° SSW visible
22 Jan -1.9 17:44:06 10° SSW 17:46:34 19° SSE 17:46:41 19° SSE visible
22 Jan -0.4 19:19:38 10° WSW 19:19:38 10° WSW 19:19:38 10° WSW visible
23 Jan -1.5 16:57:05 10° S 16:59:01 15° SSE 17:00:57 10° ESE visible
23 Jan -1.9 18:32:04 10° SW 18:33:55 25° SSW 18:33:55 25° SSW visible
24 Jan -2.5 17:44:32 10° SW 17:47:30 29° SSE 17:48:08 27° SE visible
24 Jan -0.5 19:20:41 10° WSW 19:21:05 13° WSW 19:21:05 13° WSW visible
25 Jan -2.1 16:57:06 10° SSW 16:59:52 24° SSE 17:02:20 12° ESE visible
25 Jan -2.3 18:33:00 10° WSW 18:35:17 32° SW 18:35:17 32° SW visible
26 Jan -2.8 17:45:21 10° WSW 17:48:30 38° S 17:49:27 30° SE visible
26 Jan -0.6 19:21:47 10° W 19:22:24 14° WSW 19:22:24 14° WSW visible
27 Jan -2.5 16:57:43 10° SW 17:00:48 33° SSE 17:03:37 12° ESE visible
27 Jan -2.4 18:34:02 10° WSW 18:36:33 35° SW 18:36:33 35° SW visible
28 Jan -2.9 17:46:18 10° WSW 17:49:30 41° S 17:50:43 28° SE visible
28 Jan -0.7 19:22:58 10° W 19:23:40 14° WSW 19:23:40 14° WSW visible
29 Jan -2.7 16:58:34 10° WSW 17:01:46 40° S 17:04:54 10° ESE visible
29 Jan -2.3 18:35:07 10° W 18:37:51 31° SSW 18:37:51 31° SSW visible
30 Jan -2.6 17:47:18 10° W 17:50:27 36° S 17:52:04 22° SE visible
30 Jan -0.6 19:24:23 10° WSW 19:25:01 13° WSW 19:25:01 13° WSW visible
